Location: Clyde
(45.1830°S, 169.3170°E)
Time: 17:23:50
(UTC+13:00)

Cosmos 2237 Rocket - Pass Details

Date: 24 January 2019
Orbit: 833 x 851 km, 71.0° (Epoch: 16 February)

Event Time Altitude Azimuth Distance (km) Brightness Sun altitude
Exits shadow 23:50:55 20° 83° (E) 1,854 3.6 -19.7°
Drops below altitude 10° 23:54:48 10° 126° (SE) 2,488 4.7 -20.1°
Sets 23:57:50 0° 141° (SE) 3,428 5.7 -20.3°
